TimeEDT,TemperatureF,Dew PointF,Humidity,Sea Level PressureIn,VisibilityMPH,Wind Direction,Wind SpeedMPH,Gust SpeedMPH,PrecipitationIn,Events,Conditions,WindDirDegrees,DateUTC
12:38 AM,75.2,73.4,94,29.95,10.0,SSW,10.4,18.4,N/A,,Mostly Cloudy,210,2012-08-12 04:38:00
12:51 AM,75.2,73.4,94,29.95,10.0,SSW,11.5,19.6,N/A,,Scattered Clouds,210,2012-08-12 04:51:00
12:56 AM,75.9,73.9,94,29.95,10.0,SSW,10.4,-,N/A,,Partly Cloudy,210,2012-08-12 04:56:00
1:56 AM,75.9,73.9,94,29.95,10.0,SSW,10.4,-,N/A,,Scattered Clouds,210,2012-08-12 05:56:00
2:34 AM,75.2,73.4,94,29.95,10.0,SSW,8.1,-,N/A,,Mostly Cloudy,210,2012-08-12 06:34:00
2:56 AM,75.9,73.0,91,29.94,10.0,SSW,9.2,-,N/A,,Overcast,210,2012-08-12 06:56:00
3:05 AM,75.2,73.4,94,29.94,10.0,SSW,9.2,-,N/A,,Overcast,200,2012-08-12 07:05:00
3:33 AM,75.2,73.4,94,29.94,10.0,SSW,8.1,-,N/A,,Scattered Clouds,200,2012-08-12 07:33:00
3:47 AM,75.2,73.4,94,29.94,10.0,South,8.1,-,N/A,,Scattered Clouds,190,2012-08-12 07:47:00
3:54 AM,75.2,73.4,94,29.94,10.0,SSW,6.9,-,N/A,,Mostly Cloudy,200,2012-08-12 07:54:00
3:56 AM,75.0,73.9,96,29.94,10.0,South,5.8,-,N/A,,Mostly Cloudy,190,2012-08-12 07:56:00
4:36 AM,75.2,73.4,94,29.94,10.0,South,8.1,-,N/A,,Mostly Cloudy,190,2012-08-12 08:36:00
4:56 AM,75.9,73.9,94,29.94,10.0,South,8.1,-,0.00,Rain,Light Rain,190,2012-08-12 08:56:00
5:05 AM,75.2,73.4,94,29.94,10.0,South,9.2,-,0.00,Rain,Light Rain,190,2012-08-12 09:05:00
5:49 AM,75.2,73.4,94,29.95,8.0,SSW,15.0,21.9,0.02,Rain,Rain,200,2012-08-12 09:49:00
5:56 AM,73.9,73.0,97,29.95,3.0,SSW,16.1,25.3,0.04,Rain,Rain,200,2012-08-12 09:56:00
6:22 AM,73.4,71.6,94,29.95,6.0,SSW,11.5,19.6,0.05,Rain,Light Rain,200,2012-08-12 10:22:00
6:47 AM,71.6,71.6,100,29.96,6.0,SSW,15.0,21.9,0.10,Rain,Light Rain,210,2012-08-12 10:47:00
6:56 AM,72.0,71.1,97,29.96,4.0,South,13.8,-,0.13,Rain,Rain,190,2012-08-12 10:56:00
6:59 AM,71.6,71.6,100,29.95,3.0,SSW,10.4,19.6,0.01,Rain,Heavy Rain,200,2012-08-12 10:59:00
7:19 AM,71.6,71.6,100,29.95,1.8,SW,11.5,-,0.10,Rain,Heavy Rain,220,2012-08-12 11:19:00
7:25 AM,71.6,71.6,100,29.96,3.0,SSW,9.2,18.4,0.11,Rain,Light Rain,210,2012-08-12 11:25:00
7:56 AM,72.0,71.1,97,29.95,10.0,SSW,5.8,-,0.13,Rain,Light Rain,200,2012-08-12 11:56:00
8:33 AM,73.4,71.6,94,29.94,8.0,South,5.8,-,0.01,Rain,Light Rain,180,2012-08-12 12:33:00
8:41 AM,73.4,71.6,94,29.94,10.0,South,8.1,-,0.01,Rain,Light Rain,180,2012-08-12 12:41:00
8:56 AM,73.0,72.0,96,29.94,8.0,South,5.8,-,0.02,Rain,Light Rain,170,2012-08-12 12:56:00
9:56 AM,73.9,73.0,97,29.94,10.0,South,15.0,26.5,0.01,,Overcast,190,2012-08-12 13:56:00
10:56 AM,73.9,73.0,97,29.94,10.0,SSW,13.8,19.6,0.00,Rain,Light Rain,210,2012-08-12 14:56:00
11:56 AM,73.9,73.0,97,29.92,10.0,SSW,9.2,-,0.00,Rain,Light Rain,200,2012-08-12 15:56:00
12:56 PM,75.9,73.0,91,29.92,10.0,SSW,12.7,21.9,0.00,,Overcast,200,2012-08-12 16:56:00
1:56 PM,75.9,72.0,87,29.92,10.0,SSW,12.7,21.9,N/A,,Overcast,200,2012-08-12 17:56:00
2:56 PM,75.9,73.0,91,29.91,10.0,SSW,15.0,24.2,0.00,,Overcast,210,2012-08-12 18:56:00
3:56 PM,78.1,73.0,84,29.91,10.0,SSW,16.1,23.0,N/A,,Mostly Cloudy,200,2012-08-12 19:56:00
4:56 PM,78.1,73.0,84,29.90,10.0,SSW,11.5,20.7,N/A,,Partly Cloudy,200,2012-08-12 20:56:00
5:56 PM,75.9,73.0,91,29.90,10.0,South,12.7,20.7,N/A,,Scattered Clouds,190,2012-08-12 21:56:00
6:56 PM,75.0,73.0,94,29.91,10.0,SSW,12.7,-,N/A,,Mostly Cloudy,210,2012-08-12 22:56:00
7:56 PM,75.0,73.0,94,29.92,10.0,SSW,10.4,-,N/A,,Overcast,200,2012-08-12 23:56:00
8:51 PM,75.2,73.4,94,29.92,10.0,SSW,9.2,-,N/A,,Overcast,210,2012-08-13 00:51:00
8:56 PM,75.0,73.0,94,29.93,10.0,SSW,9.2,-,N/A,,Overcast,210,2012-08-13 00:56:00
9:56 PM,75.0,73.0,94,29.92,10.0,SSW,11.5,-,N/A,,Mostly Cloudy,210,2012-08-13 01:56:00
10:34 PM,75.2,73.4,94,29.92,10.0,SSW,9.2,-,N/A,,Overcast,210,2012-08-13 02:34:00
10:56 PM,75.0,73.0,94,29.92,10.0,SSW,10.4,-,N/A,,Overcast,210,2012-08-13 02:56:00
11:48 PM,75.2,73.4,94,29.92,10.0,SW,8.1,-,N/A,,Mostly Cloudy,230,2012-08-13 03:48:00
11:56 PM,75.0,73.0,94,29.93,10.0,SW,8.1,-,N/A,,Mostly Cloudy,230,2012-08-13 03:56:00